Regional Weather Roundup
Issued by NWS

Home | Current Version | Previous Version | Graphics & Text | Print | Product List | Glossary On
Versions: 1 2 3 4 5 6 7 8 9 10 11 12 13 14 15 16 17 18 19 20 21 22 23 24 25 26 27 28 29 30 31 32 33 34 35 36 37 38 39 40 41 42 43 44 45 46 47 48 49 50
000
ASUS43 KTOP 301259
RWRKS

WEATHER ROUNDUP FOR KANSAS
NATIONAL WEATHER SERVICE GOODLAND KS
800 AM CDT TUE AUG 30 2016

NOTE:  "FAIR" INDICATES FEW OR NO CLOUDS BELOW 12,000 FEET WITH NO
SIGNIFICANT WEATHER AND/OR OBSTRUCTIONS TO VISIBILITY.

KSZ001>006-013>018-027>032-041>047-301400-
NORTHWEST KANSAS

CITY           SKY/WX    TMP DP  RH WIND       PRES   REMARKS
GOODLAND       MOCLDY    60  60 100 CALM      30.26S FOG
HAYS           CLOUDY    66  61  82 E3        30.22R
HILL CITY      CLOUDY    67  66  97 CALM      30.24R FOG
RUSSELL        CLOUDY    67  67 100 E5        30.19S FOG
$$

KSZ061>065-074>080-084>089-301400-
SOUTHWEST KANSAS

CITY           SKY/WX    TMP DP  RH WIND       PRES   REMARKS
DODGE CITY     FOG       67  66  97 N5        30.22S VSB 1/4
ELKHART          N/A     65  60  84 SW6         N/A
GARDEN CITY    FOG       65  64  97 E5        30.24R VSB 1/2
GREAT BEND     CLOUDY    68  61  77 NE6       30.21R
LIBERAL        MOCLDY    68  63  83 NE5       30.25R
$$

KSZ066>073-081>083-090>101-301400-
SOUTHEAST KANSAS

CITY           SKY/WX    TMP DP  RH WIND       PRES   REMARKS
CHANUTE        SUNNY     74  71  91 E6        30.15R
COFFEYVILLE    SUNNY     72  71  97 N3        30.14R
HUTCHINSON     CLOUDY    71  69  93 NE8       30.18R
MEDICINE LODGE   N/A     69  68  96 N5        30.17R
NEWTON         CLOUDY    72  70  93 E5        30.19R
PARSONS        SUNNY     72  70  93 CALM      30.16R
WICHITA INTL   PTSUNNY   76  72  87 NE5       30.16R
WICHITA JABRA  SUNNY     71  71 100 NE5       30.17R
WINFIELD       MOSUNNY   73  69  87 E3        30.16S
$$

KSZ007>012-019>026-033>040-048>060-102>105-301400-
NORTHEAST KANSAS

CITY           SKY/WX    TMP DP  RH WIND       PRES   REMARKS
CONCORDIA      CLOUDY    68  66  93 CALM      30.20R
EMPORIA        LGT RAIN  73  72  96 CALM      30.17S FOG
LAWRENCE       MOSUNNY   70  70 100 CALM      30.16R
MANHATTAN      CLOUDY    72  69  90 CALM      30.17R
OLATHE IND     MOSUNNY   70  70 100 SE3       30.16R
OLATHE EXE     PTSUNNY   69  68  96 SE5       30.16R
SALINA         LGT RAIN  72  70  93 NE7       30.19S
TOPEKA BILLARD SUNNY     72  70  93 CALM      30.15R
TOPEKA FORBES  SUNNY     73  70  90 CALM      30.16R
$$



USA.gov is the U.S. government's official web portal to all federal, state and local government web resources and services.